[[{"header":{"parameterUnit":"m.s-1","parameterCategory":1,"la1":30.2991,"la2":30.254,"lo1":-89.0895,"lo2":-89.0444,"dy":0.0017,"dx":0.0017,"nx":28,"ny":28,"refTime":"2023-09-16T09:00:00:Z","depth":0,"parameterNumber":2,"parameterNumberName":"U-component_of_WINDS"},"data":[0,0,0,0,0,0,0,0,0,0,0,0,0,0,0,0,0,0,0,0,0,0,0,0,0,0,0,0,0,0,0,0,0,0,0,0,0,0,0,0,0,0,0,0,0,0,0,0,0,0,0,0,0,0,0,0,0,0,1.1887,1.1888,0,1.1985,1.1986,1.1988,1.2007,1.2006,1.2005,1.2004,1.2103,1.2106,1.2109,0,0,0,0,0,0,0,0,0,0,0,0,0,1.1713,1.1716,1.1887,1.1888,1.1889,1.1985,1.1986,1.1988,1.2007,1.2006,1.2005,1.2004,1.2101,1.2105,1.2109,0,0,0,0,0,0,0,0,0,0,0,0,0,1.1797,1.1717,1.1887,1.191,1.1914,1.1985,1.1987,1.1988,1.2007,1.2006,1.2005,1.2004,1.21,1.2105,1.211,1.2164,0,0,1.2125,1.2127,0,0,0,0,0,0,0,0,1.1792,1.1804,1.1906,1.1909,1.1913,1.1983,1.1961,1.2047,1.2007,1.1971,1.2004,1.2003,1.2063,1.2071,1.2092,1.2168,1.2172,1.2126,1.2129,1.2131,1.2132,0,0,0,0,0,0,0,1.1787,1.1799,1.1926,1.1907,1.1911,1.1915,1.1926,1.1977,1.2023,1.1974,1.1976,1.1988,1.2065,1.2087,1.2095,1.2174,1.2125,1.213,1.2133,1.2135,1.2297,1.2299,0,0,0,0,0,0,1.1777,1.1794,1.1923,1.1929,1.1849,1.1919,1.1931,1.1961,1.2022,1.203,1.1988,1.1988,1.2079,1.2089,1.2098,1.2164,1.2131,1.2135,1.2138,1.2296,1.2298,1.2299,0,0,0,0,0,0,1.1773,1.1788,1.1919,1.1862,1.1879,1.1924,1.1957,1.1964,1.1986,1.2033,1.2041,1.2003,1.2079,1.2091,1.2147,1.2168,1.2138,1.2142,1.2294,1.2297,1.2298,1.2297,0,0,0,0,0,0,1.1768,1.1787,1.1808,1.1863,1.1882,1.1967,1.1958,1.1967,1.1995,1.1995,1.2049,1.2056,1.2079,1.2139,1.2152,1.2174,1.2146,1.2293,1.2295,1.2298,1.2295,1.2298,1.2301,0,0,0,0,0,1.1762,1.1804,1.1809,1.1825,1.191,1.1968,1.1979,1.2005,1.1997,1.2018,1.2048,1.2055,1.2164,1.2145,1.2159,1.2183,1.2292,1.2295,1.2298,1.2294,1.2298,1.2301,0,0,0,0,0,0,1.175,1.1811,1.1818,1.1879,1.1918,1.1971,1.1999,1.2009,1.205,1.2049,1.2079,1.209,1.2144,1.217,1.2148,1.2238,1.2227,1.2233,1.2219,1.2223,1.2226,1.2218,1.215,0,0,0,0,0,1.1754,1.1797,1.1848,1.1897,1.1916,1.1954,1.1981,1.1997,1.2039,1.2055,1.2089,1.2128,1.2171,1.2199,1.2241,1.2299,1.231,1.2322,1.2325,1.2328,1.2332,1.2363,1.2369,1.2309,1.2309,1.2309,0,0,1.1764,1.1803,1.1828,1.1896,1.1928,1.197,1.1968,1.2014,1.2045,1.2062,1.2116,1.2143,1.2188,1.2245,1.2272,1.2268,1.2351,1.2331,1.2333,1.2336,1.2367,1.2372,1.2377,1.2311,1.2311,1.231,0,0,1.1803,1.1838,1.1881,1.1914,1.1963,1.1988,1.1999,1.205,1.2068,1.2124,1.2137,1.2174,1.2248,1.228,1.2306,1.2356,1.2363,1.2369,1.2384,1.2414,1.2419,1.2423,1.244,1.2446,1.2373,1.2373,1.2373,0,1.1809,1.1874,1.1902,1.1947,1.1976,1.1994,1.2038,1.2068,1.2128,1.2146,1.2141,1.2234,1.2266,1.2329,1.2342,1.2362,1.2374,1.2363,1.2416,1.2421,1.2425,1.2441,1.2448,1.2374,1.2374,1.2374,1.2374,0,1.1878,1.1923,1.1952,1.2011,1.2043,1.2087,1.212,1.2149,1.2163,1.2188,1.2244,1.2283,1.2333,1.2349,1.2363,1.2415,1.2411,1.2411,1.24,1.2431,1.2446,1.2453,1.2374,1.2374,1.2374,1.2374,0,0,1.1912,1.1985,1.1995,1.2021,1.2077,1.2112,1.2156,1.2206,1.2229,1.227,1.2307,1.2369,1.2369,1.2398,1.2415,1.2442,1.2477,1.2438,1.244,1.2443,1.2535,1.2534,1.2541,1.2483,1.2484,1.2485,1.2531,0,1.1956,1.2037,1.2063,1.213,1.2171,1.2189,1.2227,1.2264,1.2289,1.2327,1.2353,1.2396,1.2394,1.2411,1.2439,1.2467,1.2496,1.2465,1.2516,1.2518,1.2503,1.2549,1.2548,1.2589,1.2537,1.2538,1.2539,0,1.2019,1.2062,1.2132,1.2182,1.22,1.2234,1.2281,1.2318,1.236,1.2376,1.2408,1.2424,1.2469,1.2457,1.2519,1.2497,1.252,1.2537,1.2539,1.2544,1.2529,1.2554,1.2603,1.2609,1.2549,1.2549,1.2548,0,1.2035,1.211,1.2162,1.2184,1.2243,1.2266,1.2292,1.2333,1.2361,1.2402,1.242,1.2465,1.249,1.2524,1.255,1.2539,1.261,1.26,1.2623,1.2622,1.2636,1.2635,1.2689,1.2653,1.2653,1.2653,1.2653,0,1.2082,1.2124,1.2169,1.2201,1.2248,1.2278,1.2324,1.235,1.2387,1.2423,1.2441,1.2474,1.2508,1.2545,1.2566,1.2614,1.2625,1.2638,1.2643,1.2636,1.2634,1.265,1.2648,1.2654,1.2654,1.2654,1.2653,0,1.2107,1.2139,1.2197,1.2248,1.2262,1.2295,1.2338,1.2369,1.2394,1.244,1.2452,1.2491,1.2536,1.2566,1.2624,1.2638,1.2689,1.2694,1.2675,1.2677,1.2698,1.2695,1.2763,1.2773,1.2731,1.2732,1.2732,0,1.2134,1.2167,1.2222,1.2248,1.2274,1.2315,1.2344,1.2374,1.2403,1.2453,1.2477,1.2524,1.2562,1.2633,1.2666,1.2709,1.2715,1.2736,1.2721,1.2713,1.2713,1.2711,1.2713,1.2737,1.2738,1.2738,1.2738,0,1.2177,1.2192,1.2233,1.2279,1.2313,1.2351,1.2389,1.2409,1.2445,1.2476,1.2523,1.2553,1.2611,1.2656,1.2703,1.2728,1.2739,1.2742,1.275,1.2742,1.2729,1.2735,1.268,1.2741,1.274,1.274,1.274,1.274,1.2203,1.2233,1.2276,1.2321,1.2353,1.2388,1.2419,1.2449,1.2488,1.2539,1.2554,1.2602,1.2643,1.2706,1.2732,1.277,1.2767,1.2778,1.2781,1.2783,1.2782,1.2724,1.2778,1.2778,1.2778,1.2778,1.2778,0,1.2247,1.2276,1.2317,1.2369,1.2404,1.2413,1.2455,1.2483,1.2525,1.2563,1.26,1.2653,1.2697,1.2733,1.2778,1.2801,1.2807,1.2812,1.281,1.2815,1.2782,1.2771,1.2806,1.2806,1.2806,1.2806,1.2806,1.2806,1.2273,1.2324,1.2343,1.2409,1.2437,1.2485,1.2509,1.254,1.257,1.2629,1.2666,1.2689,1.2726,1.2774,1.2814,1.2823,1.2838,1.2842,1.2852,1.2821,1.2817,1.2814,1.2804,1.2845,1.2845,1.2882,1.2882,1.2882]},{"header":{"parameterUnit":"m.s-1","parameterCategory":1,"la1":30.2991,"la2":30.254,"lo1":-89.0895,"lo2":-89.0444,"dy":0.0017,"dx":0.0017,"nx":28,"ny":28,"refTime":"2023-09-16T09:00:00:Z","depth":0,"parameterNumber":3,"parameterNumberName":"V-component_of_WINDS"},"data":[0,0,0,0,0,0,0,0,0,0,0,0,0,0,0,0,0,0,0,0,0,0,0,0,0,0,0,0,0,0,0,0,0,0,0,0,0,0,0,0,0,0,0,0,0,0,0,0,0,0,0,0,0,0,0,0,0,0,4.6718,4.6718,0,4.6675,4.6675,4.6674,4.6601,4.66,4.6598,4.6597,4.6555,4.6555,4.6555,0,0,0,0,0,0,0,0,0,0,0,0,0,4.6737,4.6737,4.6718,4.6718,4.6717,4.6676,4.6675,4.6674,4.6601,4.66,4.6598,4.6596,4.6554,4.6555,4.6555,0,0,0,0,0,0,0,0,0,0,0,0,0,4.6715,4.6737,4.6718,4.6676,4.6671,4.6676,4.6675,4.6674,4.6602,4.66,4.6598,4.6596,4.6554,4.6555,4.6555,4.6598,0,0,4.6556,4.6556,0,0,0,0,0,0,0,0,4.6716,4.6715,4.6682,4.6678,4.6674,4.6641,4.6666,4.6649,4.6602,4.6628,4.6597,4.6595,4.6585,4.6583,4.6579,4.6596,4.6594,4.6556,4.6556,4.6556,4.6556,0,0,0,0,0,0,0,4.6718,4.6716,4.6701,4.6682,4.6677,4.6659,4.6653,4.6662,4.6619,4.6626,4.662,4.6616,4.6582,4.6579,4.6578,4.6593,4.6556,4.6556,4.6556,4.6556,4.6641,4.6643,0,0,0,0,0,0,4.6726,4.6718,4.6703,4.67,4.669,4.666,4.6654,4.6654,4.6619,4.6611,4.6618,4.6613,4.658,4.6578,4.6576,4.6622,4.6556,4.6556,4.6556,4.6639,4.6642,4.6644,0,0,0,0,0,0,4.6726,4.6725,4.6704,4.6707,4.6703,4.6662,4.6662,4.6654,4.6651,4.6613,4.6605,4.6623,4.6578,4.6576,4.6592,4.662,4.6556,4.6556,4.6637,4.664,4.6643,4.6717,0,0,0,0,0,0,4.6727,4.6726,4.6741,4.6708,4.6703,4.6721,4.6664,4.6655,4.6651,4.6644,4.6615,4.6608,4.6576,4.6593,4.6593,4.6619,4.6557,4.6634,4.6638,4.6642,4.6712,4.6722,4.6731,0,0,0,0,0,4.6728,4.6764,4.6743,4.6741,4.6722,4.6723,4.672,4.6683,4.6654,4.6669,4.6645,4.6609,4.6618,4.6595,4.6594,4.6622,4.6632,4.6637,4.6642,4.6707,4.672,4.6731,0,0,0,0,0,0,4.6802,4.6759,4.6735,4.6761,4.6746,4.6711,4.6729,4.6698,4.6691,4.6685,4.6639,4.6633,4.6656,4.664,4.6616,4.6661,4.6619,4.6624,4.6669,4.6681,4.6691,4.6693,4.6557,0,0,0,0,0,4.6822,4.6826,4.6788,4.6815,4.6809,4.6771,4.677,4.6742,4.6725,4.6719,4.6695,4.668,4.6679,4.668,4.6677,4.671,4.6702,4.6728,4.6738,4.6746,4.675,4.6766,4.6776,4.666,4.666,4.666,0,0,4.6862,4.6839,4.6844,4.683,4.6815,4.682,4.6766,4.6774,4.6777,4.672,4.6733,4.6716,4.6697,4.6721,4.6731,4.6709,4.6781,4.6752,4.6759,4.6759,4.6772,4.6783,4.6793,4.6663,4.6662,4.6662,0,0,4.6937,4.6921,4.6941,4.6927,4.6905,4.6879,4.6885,4.6854,4.684,4.6853,4.681,4.6813,4.6813,4.68,4.6794,4.6865,4.6831,4.6865,4.6915,4.6931,4.694,4.6948,4.6972,4.6981,4.687,4.687,4.6871,0,4.699,4.6996,4.6955,4.6966,4.696,4.6908,4.6928,4.6917,4.6896,4.6893,4.6869,4.6867,4.685,4.6871,4.6888,4.6885,4.6889,4.6868,4.6942,4.6949,4.6956,4.6978,4.6988,4.6875,4.6874,4.6874,4.6873,0,4.7061,4.7066,4.7085,4.7065,4.7062,4.7077,4.7039,4.7041,4.7014,4.6991,4.7004,4.6982,4.6974,4.6977,4.6951,4.6994,4.698,4.695,4.6907,4.6972,4.6992,4.7001,4.688,4.6879,4.6878,4.6877,0,0,4.718,4.7138,4.7146,4.7135,4.7108,4.7111,4.7124,4.7115,4.7117,4.7105,4.7114,4.7115,4.7086,4.7079,4.7051,4.7065,4.7121,4.7032,4.7031,4.7048,4.7165,4.7187,4.7198,4.7099,4.7101,4.7102,4.7166,0,4.7249,4.7268,4.7232,4.726,4.7263,4.7214,4.7226,4.721,4.7189,4.7189,4.7166,4.7166,4.7129,4.7125,4.7136,4.7112,4.7143,4.7107,4.7106,4.7107,4.7111,4.7208,4.7232,4.7294,4.7174,4.7175,4.7176,0,4.7331,4.7322,4.735,4.732,4.732,4.7331,4.7319,4.732,4.7302,4.7285,4.7277,4.7244,4.7255,4.7215,4.7228,4.7204,4.7202,4.719,4.7192,4.7189,4.7145,4.7207,4.7313,4.7322,4.7189,4.7188,4.7187,0,4.7414,4.7409,4.7424,4.7417,4.7384,4.7392,4.7378,4.7357,4.7354,4.7345,4.7342,4.7334,4.7329,4.7324,4.729,4.7264,4.7307,4.7264,4.7293,4.7294,4.7303,4.7303,4.7408,4.7304,4.7304,4.7304,4.7304,0,4.7493,4.7511,4.7461,4.747,4.749,4.7449,4.7469,4.7451,4.7433,4.7438,4.7396,4.7401,4.7356,4.7357,4.733,4.7345,4.7343,4.733,4.7322,4.7333,4.7334,4.733,4.7324,4.7307,4.7306,4.7306,4.7305,0,4.7588,4.7555,4.7568,4.7535,4.7527,4.7543,4.7514,4.7522,4.7498,4.7505,4.7504,4.7467,4.7466,4.7431,4.7423,4.7405,4.743,4.7415,4.7436,4.7431,4.7461,4.7458,4.7566,4.7578,4.7468,4.7469,4.747,0,4.764,4.7653,4.7621,4.7621,4.7609,4.761,4.7607,4.7567,4.7565,4.7545,4.7555,4.755,4.7543,4.7544,4.7516,4.7509,4.7493,4.7531,4.7491,4.7501,4.7491,4.7491,4.7491,4.7539,4.7541,4.7542,4.7543,0,4.7735,4.7718,4.7714,4.7705,4.7702,4.7693,4.7681,4.7683,4.764,4.764,4.7638,4.7633,4.7624,4.7619,4.7607,4.7593,4.756,4.7556,4.7561,4.7572,4.7583,4.7576,4.7457,4.7553,4.7552,4.7551,4.7551,4.755,4.7809,4.7818,4.7797,4.7794,4.7781,4.7771,4.7776,4.7753,4.775,4.774,4.7717,4.7718,4.7699,4.7679,4.7668,4.7668,4.7648,4.7657,4.7659,4.7662,4.7667,4.7584,4.7666,4.7665,4.7665,4.7665,4.7665,0,4.79,4.7885,4.7882,4.7867,4.7865,4.7835,4.782,4.782,4.7822,4.7807,4.7801,4.7799,4.7794,4.7766,4.7758,4.7764,4.7748,4.7763,4.7761,4.7758,4.7686,4.7681,4.7775,4.7775,4.7775,4.7775,4.7775,4.7775,4.7948,4.7961,4.7942,4.7949,4.7932,4.7933,4.7927,4.7918,4.7905,4.7904,4.79,4.7881,4.7861,4.7851,4.7845,4.7837,4.7835,4.7855,4.7842,4.7774,4.7763,4.7753,4.7748,4.7855,4.7855,4.7913,4.7914,4.7914]}]]